Погода в Дивной Горе

Россия / Ярославская область     57°30′47″N   38°28′34″E
темп.,
°C
ветер,
м/с
пор.,
м/с
влажн.,
%
обл.,
%
осадки,
мм/ч
давл.,
гПа
погр.,
м
29 июня, ср
ср2900:00+10всв26710 0.0 102497
03:00+8в22760 0.0 102514
06:00+12всв13654 0.0 1025118
09:00+17св23430 0.0 10241070
12:00+20св23330 0.0 10231737
15:00+22ссв22320 0.0 10221957
18:00+21с33410 0.0 10211324
21:00+14св22705 0.0 102118
30 июня, чт
чт3000:00+12всв116499 0.0 102110
03:00+10сз126599 0.0 102111
06:00+13ссз24630 0.0 1020122
09:00+19ссз464819 0.0 1020766
12:00+22ссз5733100 0.0 10191634
15:00+22с57365 0.0 10181459
18:00+22с484820 0.0 10171654
21:00+18ссз286772 0.0 1018239
1 июля, пт
пт100:00+13ссв27804 0.0 1019114
03:00+11св22852 0.0 102017
06:00+13всв236927 0.0 1021119
09:00+19св244348 0.0 1021885
12:00+22ссв35321 0.0 10211791
15:00+24ссв34315 0.0 10201999
18:00+22ссз34415 0.0 10201274
21:00+15св11655 0.0 102011
2 июля, сб
сб200:00+13юз1165100 0.0 102010
03:00+12з2367100 0.0 102041
06:00+16з386357 0.0 1019222
09:00+22сз35586 0.0 1017548
12:00+27ссз69430 0.0 10161538
15:00+27ссз68405 0.0 10152026
18:00+26с47460 0.0 10151482
21:00+19ссв24740 0.0 101666
3 июля, вс
вс300:00+16св22840 0.0 101620
03:00+13в22924 0.0 101715
06:00+16юв12805 0.0 1017103
09:00+23всв11555 0.0 1016652
12:00+26ссз34400 0.0 10151691
15:00+27ссз46320 0.0 10141838
18:00+25с37440 0.0 10141162
21:00+19ссз00670 0.0 101411